User: anonymous   Login
Location: Beekmeers
(50.8953°N, 3.6968°E)
Time: 20:06:05
(UTC+00:00)
Language:

Cosmos 1140 Rocket - Orbit

View from above orbital plane
View from above orbital plane
View from above satellite
View from above satellite

Ground track
Ground track

The orbit data is extracted from the following two-line orbital elements,

1 11574U 79089B   24197.51225408  .00000639  00000-0  20423-3 0  9993
2 11574  74.0696 125.1586 0014514  92.0416 268.2403 14.41589415349303
Epoch (UTC): 15 July 2024 12:17:38
Eccentricity: 0.0014514
inclination: 74.0696°
perigee height: 743 km
apogee height: 763 km
right ascension of ascending node: 125.1586°
argument of perigee: 92.0416°
revolutions per day: 14.41589415
mean anomaly at epoch: 268.2403°
orbit number at epoch: 34930

The dashed part of the orbit path shows where the satellite is in the earth's shadow,  

DLR